Weather History for Lamoni, IA

Change the Weather History Date:

Thursday, June 26, 2014

  Actual Average Record
Temperature  
Mean Temperature 77 °F 74 °F  
Max Temperature 86 °F 83 °F 118 °F (2004)
Min Temperature 68 °F 64 °F 49 °F (1968)
Degree Days  
Heating Degree Days 0 0  
Month to date heating degree days 5 16  
Since 1 June heating degree days 5 16  
Since 1 July heating degree days 6770 6076  
Cooling Degree Days 12 9  
Month to date cooling degree days 176 157  
Year to date cooling degree days 288 211  
Since 1 June cooling degree days 176 157  
Growing Degree Days 26 (Base 50)    
Moisture  
Dew Point 68 °F    
Average Humidity 74    
Maximum Humidity 87    
Minimum Humidity 61    
Precipitation  
Precipitation T in 0.13 in 1.50 in (1966)
Month to date precipitation 9.33 4.44  
Sea Level Pressure  
Sea Level Pressure 29.91 in    
Wind  
Wind Speed 8 mph (SSE)    
Max Wind Speed 17 mph    
Max Gust Speed 22 mph    
Visibility 10 miles    
Events Rain    
T = Trace of Precipitation, MM = Missing Value Source: NWS Daily Summary

Daily Weather History Graph

Daily Weather History Graph

Search for Another Location

Airport:

Trip Planner

Search our weather history database for the weather conditions in past years. The results will help you decide how hot, cold, wet, or windy it might be!

Date:

Astronomy

Jun. 26, 2014 Rise Set
Actual Time 5:46 AM CDT 8:50 PM CDT
Civil Twilight 5:12 AM CDT 9:23 PM CDT
Nautical Twilight 4:30 AM CDT 10:06 PM CDT
Astronomical Twilight 3:40 AM CDT 10:56 PM CDT
Moon 5:26 AM CDT (6/26) 8:11 PM CDT (6/26)
Length of Visible Light 16h 10m
Length of Day
15h 04m
Waning Crescent, 0% of the Moon is Illuminated
Jun 26
Waning Crescent
Jun 27
New
Jul 5
First Quarter
Jul 12
Full
Jul 18
Last Quarter

Hourly Weather History & Observations

Time (CDT) Temp. Heat Index Dew Point Humidity Pressure Visibility Wind Dir Wind Speed Gust Speed Precip Events Conditions
12:53 AM 72.0 °F - 63.0 °F 73% 29.99 in 10.0 mi South 4.6 mph - N/A   Partly Cloudy
1:53 AM 71.1 °F - 63.0 °F 75% 29.98 in 10.0 mi SSE 4.6 mph - N/A   Partly Cloudy
2:53 AM 70.0 °F - 66.0 °F 87% 29.97 in 10.0 mi SSW 5.8 mph - 0.00 in Rain Light Rain
3:53 AM 70.0 °F - 64.9 °F 84% 29.96 in 10.0 mi SSE 4.6 mph - 0.00 in   Clear
4:53 AM 69.1 °F - 64.9 °F 87% 29.95 in 10.0 mi SE 5.8 mph - N/A   Clear
5:53 AM 68.0 °F - 64.9 °F 90% 29.94 in 10.0 mi ESE 5.8 mph - N/A   Clear
6:53 AM 69.1 °F - 64.9 °F 87% 29.94 in 10.0 mi SE 6.9 mph - N/A   Clear
7:53 AM 72.0 °F - 66.9 °F 84% 29.96 in 10.0 mi SSE 8.1 mph - N/A   Clear
8:53 AM 73.9 °F - 69.1 °F 85% 29.97 in 10.0 mi South 9.2 mph - N/A   Clear
9:53 AM 77.0 °F - 70.0 °F 79% 29.96 in 10.0 mi South 8.1 mph - N/A   Clear
10:53 AM 80.1 °F 83.6 °F 71.1 °F 74% 29.96 in 10.0 mi South 10.4 mph - N/A   Clear
11:53 AM 81.0 °F 84.1 °F 69.1 °F 67% 29.93 in 10.0 mi SSE 12.7 mph - N/A   Partly Cloudy
12:53 PM 82.9 °F 86.5 °F 69.1 °F 63% 29.91 in 10.0 mi SSE 13.8 mph 23.0 mph N/A   Partly Cloudy
1:53 PM 82.9 °F 85.8 °F 68.0 °F 60% 29.91 in 10.0 mi South 10.4 mph 17.3 mph N/A   Mostly Cloudy
2:53 PM 84.0 °F 88.4 °F 70.0 °F 63% 29.89 in 10.0 mi South 11.5 mph 18.4 mph N/A   Scattered Clouds
3:53 PM 84.9 °F 88.8 °F 69.1 °F 59% 29.86 in 10.0 mi South 13.8 mph 18.4 mph N/A   Scattered Clouds
4:53 PM 84.0 °F 87.8 °F 69.1 °F 61% 29.85 in 10.0 mi SSE 12.7 mph 20.7 mph N/A   Mostly Cloudy
5:53 PM 82.0 °F 85.5 °F 69.1 °F 65% 29.84 in 10.0 mi South 10.4 mph - N/A   Clear
6:53 PM 81.0 °F 84.1 °F 69.1 °F 67% 29.84 in 10.0 mi SSE 6.9 mph - 0.00 in   Clear
7:53 PM 80.1 °F 82.9 °F 69.1 °F 69% 29.86 in 10.0 mi SSE 5.8 mph - N/A   Clear
8:53 PM 77.0 °F - 68.0 °F 74% 29.86 in 10.0 mi ESE 4.6 mph - N/A   Clear
9:53 PM 77.0 °F - 68.0 °F 74% 29.86 in 10.0 mi SE 8.1 mph - N/A   Clear
10:53 PM 75.0 °F - 68.0 °F 79% 29.87 in 10.0 mi SE 5.8 mph - N/A   Clear
11:53 PM 75.0 °F - 68.0 °F 79% 29.87 in 10.0 mi SSE 6.9 mph - N/A   Partly Cloudy